Weather History for KLGC - January, 2013

Change the Weather History Date:

Wednesday, January 16, 2013

  Actual Average Record
Temperature  
Mean Temperature 62 °F -  
Max Temperature 67 °F 54 °F 76 °F (1953)
Min Temperature 55 °F 29 °F 6 °F (1972)
Degree Days  
Heating Degree Days 3    
Growing Degree Days 12 (Base 50)    
Moisture  
Dew Point 61 °F    
Average Humidity 96    
Maximum Humidity 100    
Minimum Humidity 90    
Precipitation  
Precipitation 0.00 in - - ()
Sea Level Pressure  
Sea Level Pressure 29.97 in    
Wind  
Wind Speed 5 mph (WSW)    
Max Wind Speed 9 mph    
Max Gust Speed -    
Visibility 8 miles    
Events Rain    
Averages and records for this station are not official NWS values.
T = Trace of Precipitation, MM = Missing Value Source: NWS Daily Summary

Daily Weather History Graph

Daily Weather History Graph

Search for Another Location

Airport or City:

Trip Planner

Search our weather history database for the weather conditions in past years. The results will help you decide how hot, cold, wet, or windy it might be!

Date:

Astronomy

Jan. 16, 2013 Rise Set
Actual Time 7:43 AM EST 5:57 PM EST
Civil Twilight 7:16 AM EST 6:24 PM EST
Nautical Twilight 6:46 AM EST 6:54 PM EST
Astronomical Twilight 6:16 AM EST 7:24 PM EST
Moon 10:38 AM EST (1/16) 11:26 PM EST (1/16)
Length of Visible Light 11h 08m
Length of Day
10h 14m
Waxing Crescent, 28% of the Moon is Illuminated
Jan 16
Waxing Crescent
Jan 18
First Quarter
Jan 26
Full
Feb 3
Last Quarter
Feb 10
New

Hourly Weather History & Observations

Time (EST) Temp. Dew Point Humidity Pressure Visibility Wind Dir Wind Speed Gust Speed Precip Events Conditions
12:15 AM 67.5 °F 66.2 °F 96% 29.96 in 10.0 mi South 6.9 mph - N/A   Overcast
12:35 AM 67.5 °F 66.0 °F 95% 29.96 in 10.0 mi South 5.8 mph - N/A   Overcast
12:55 AM 68.0 °F 66.2 °F 94% 29.96 in 10.0 mi South 8.1 mph - N/A   Overcast
1:15 AM 67.3 °F 65.8 °F 95% 29.95 in 7.0 mi South 9.2 mph - N/A Rain Rain
1:35 AM 66.9 °F 65.8 °F 96% 29.95 in 5.0 mi South 8.1 mph - N/A Rain Rain
1:55 AM 66.4 °F 65.5 °F 97% 29.94 in 7.0 mi South 8.1 mph - N/A Rain Light Rain
2:15 AM 66.2 °F 65.3 °F 97% 29.94 in 7.0 mi South 8.1 mph - N/A Rain Rain
2:35 AM 66.2 °F 65.5 °F 98% 29.95 in 7.0 mi South 6.9 mph - N/A Rain Light Rain
2:55 AM 66.2 °F 65.3 °F 97% 29.94 in 4.0 mi South 9.2 mph - N/A Rain Rain
3:15 AM 66.0 °F 65.3 °F 98% 29.95 in 3.0 mi WSW 6.9 mph - N/A Rain Heavy Rain
3:35 AM 65.8 °F 65.3 °F 98% 29.95 in 5.0 mi SW 3.5 mph - N/A Rain Rain
3:55 AM 66.2 °F 66.2 °F 100% 29.94 in 5.0 mi South 5.8 mph - N/A Rain Heavy Rain
4:15 AM 65.7 °F 65.3 °F 99% 29.94 in 5.0 mi SSW 3.5 mph - N/A Rain Rain
4:35 AM 65.7 °F 65.3 °F 99% 29.93 in 5.0 mi South 4.6 mph - N/A Rain Light Rain
4:55 AM 65.7 °F 65.1 °F 98% 29.92 in 10.0 mi SSW 5.8 mph - N/A   Overcast
5:15 AM 65.7 °F 64.9 °F 98% 29.92 in 7.0 mi SSW 5.8 mph - N/A   Drizzle
5:35 AM 65.8 °F 65.3 °F 98% 29.92 in 7.0 mi SSW 6.9 mph - N/A Rain Light Rain
5:55 AM 66.0 °F 65.3 °F 98% 29.92 in 10.0 mi SSW 5.8 mph - N/A   Overcast
6:15 AM 66.2 °F 65.3 °F 97% 29.92 in 7.0 mi SSW 5.8 mph - N/A   Drizzle
6:35 AM 66.2 °F 65.5 °F 98% 29.93 in 5.0 mi SSW 6.9 mph - N/A Rain Light Rain
6:55 AM 66.2 °F 66.2 °F 100% 29.94 in 5.0 mi SW 3.5 mph - N/A Rain Rain
7:15 AM 66.2 °F 66.2 °F 100% 29.95 in 5.0 mi West 6.9 mph - N/A Rain Light Rain
7:35 AM 65.7 °F 65.3 °F 99% 29.96 in 5.0 mi WNW 4.6 mph - N/A   Heavy Drizzle
7:55 AM 65.3 °F 64.8 °F 98% 29.97 in 5.0 mi West 3.5 mph - N/A   Heavy Drizzle
8:15 AM 65.3 °F 64.8 °F 98% 29.97 in 3.0 mi West 4.6 mph - N/A   Heavy Drizzle
8:35 AM 63.5 °F 62.6 °F 97% 29.98 in 3.0 mi NW 9.2 mph - N/A   Heavy Drizzle
8:55 AM 62.6 °F 61.7 °F 97% 29.99 in 5.0 mi WNW 8.1 mph - N/A Rain Light Rain
9:15 AM 61.7 °F 61.0 °F 97% 30.01 in 4.0 mi West 4.6 mph - N/A Rain Rain
9:35 AM 62.1 °F 61.2 °F 97% 30.01 in 10.0 mi West 3.5 mph - N/A   Overcast
9:55 AM 62.1 °F 61.2 °F 97% 30.02 in 10.0 mi Calm Calm - N/A   Overcast
10:15 AM 62.2 °F 60.8 °F 95% 30.02 in 10.0 mi Calm Calm - N/A   Overcast
10:35 AM 62.2 °F 61.0 °F 96% 30.01 in 10.0 mi Calm Calm - N/A   Overcast
10:55 AM 62.8 °F 61.7 °F 96% 30.01 in 10.0 mi Calm Calm - N/A   Overcast
11:15 AM 63.9 °F 61.7 °F 93% 30.00 in 10.0 mi SSW 3.5 mph - N/A   Overcast
11:35 AM 64.0 °F 62.1 °F 93% 30.00 in 10.0 mi Calm Calm - N/A   Overcast
11:55 AM 64.4 °F 61.5 °F 90% 29.99 in 10.0 mi Calm Calm - N/A   Overcast
12:15 PM 64.4 °F 61.7 °F 91% 29.97 in 10.0 mi Calm Calm - N/A   Overcast
12:35 PM 64.8 °F 61.9 °F 90% 29.97 in 10.0 mi Calm Calm - N/A   Overcast
12:55 PM 64.4 °F 61.3 °F 90% 29.97 in 10.0 mi West 4.6 mph - N/A   Overcast
1:15 PM 64.4 °F 61.3 °F 90% 29.96 in 10.0 mi Calm Calm - N/A   Overcast
1:35 PM 64.4 °F 61.5 °F 90% 29.96 in 10.0 mi WNW 4.6 mph - N/A   Overcast
1:55 PM 64.0 °F 61.3 °F 91% 29.96 in 10.0 mi WNW 5.8 mph - N/A   Overcast
2:15 PM 63.7 °F 61.3 °F 92% 29.96 in 10.0 mi NW 6.9 mph - N/A   Overcast
2:35 PM 62.1 °F 61.0 °F 96% 29.95 in 2.5 mi NNW 4.6 mph - N/A   Drizzle
2:55 PM 61.9 °F 60.8 °F 96% 29.95 in 5.0 mi North 5.8 mph - N/A   Drizzle
3:15 PM 60.1 °F 59.0 °F 96% 29.95 in 5.0 mi North 5.8 mph - N/A Rain Light Rain
3:35 PM 59.9 °F 58.8 °F 96% 29.95 in 4.0 mi Calm Calm - N/A Rain Light Rain
3:55 PM 59.9 °F 58.5 °F 95% 29.95 in 7.0 mi NNE 3.5 mph - N/A Rain Rain
4:15 PM 59.9 °F 58.6 °F 96% 29.95 in 5.0 mi Calm Calm - N/A   Drizzle
4:35 PM 59.9 °F 58.3 °F 94% 29.96 in 10.0 mi North 3.5 mph - N/A   Overcast
4:55 PM 59.9 °F 58.6 °F 96% 29.96 in 10.0 mi NE 4.6 mph - N/A   Overcast
5:15 PM 60.8 °F 59.0 °F 94% 29.96 in 10.0 mi Calm Calm - N/A   Overcast
5:35 PM 59.9 °F 58.5 °F 95% 29.96 in 10.0 mi Calm Calm - N/A Rain Light Rain
5:55 PM 59.7 °F 58.6 °F 96% 29.97 in 7.0 mi Calm Calm - N/A   Overcast
6:15 PM 59.5 °F 58.5 °F 96% 29.98 in 10.0 mi Calm Calm - N/A Rain Rain
6:35 PM 59.5 °F 58.5 °F 96% 29.98 in 10.0 mi Calm Calm - N/A Rain Light Rain
6:55 PM 59.5 °F 58.5 °F 96% 29.99 in 7.0 mi Calm Calm - N/A Rain Rain
7:15 PM 59.2 °F 58.5 °F 97% 29.99 in 4.0 mi Calm Calm - N/A Rain Heavy Rain
7:35 PM 59.0 °F 58.5 °F 98% 29.99 in 7.0 mi Calm Calm - N/A   Light Drizzle
7:55 PM 58.8 °F 58.1 °F 97% 29.99 in 10.0 mi NNE 3.5 mph - N/A   Overcast
8:15 PM 58.3 °F 57.4 °F 97% 29.98 in 10.0 mi Calm Calm - N/A Rain Light Rain
8:35 PM 58.1 °F 57.2 °F 97% 29.99 in 10.0 mi North 4.6 mph - N/A   Overcast
8:55 PM 57.6 °F 56.3 °F 96% 29.99 in 10.0 mi NNE 3.5 mph - N/A   Overcast
9:15 PM 57.2 °F 55.8 °F 95% 30.00 in 10.0 mi NNE 4.6 mph - N/A   Overcast
9:35 PM 57.2 °F 55.6 °F 94% 29.99 in 10.0 mi NNE 4.6 mph - N/A Rain Heavy Rain
9:55 PM 56.8 °F 55.8 °F 96% 29.99 in 7.0 mi North 5.8 mph - N/A   Light Drizzle
10:15 PM 56.7 °F 55.6 °F 96% 29.98 in 10.0 mi NNE 3.5 mph - N/A   Overcast
10:35 PM 56.5 °F 55.4 °F 96% 29.98 in 10.0 mi Calm Calm - N/A Rain Light Rain
10:55 PM 56.5 °F 55.4 °F 96% 29.97 in 10.0 mi Calm Calm - N/A Rain Light Rain
11:15 PM 56.3 °F 55.6 °F 97% 29.97 in 7.0 mi Calm Calm - N/A Rain Rain
11:35 PM 56.3 °F 55.4 °F 97% 29.96 in 7.0 mi Calm Calm - N/A Rain Rain
11:55 PM 55.9 °F 55.4 °F 98% 29.96 in 5.0 mi Calm Calm - N/A Rain Light Rain